| time (UTC) | temp F | wind direction | speed MPH | gust MPH | rain 1hr in | rain 24hr in | rain mn in | humidity % | barometer mb |
| 20260831192031 | 66 | 310 | 5.0 | 0.0 | 0.00 | 0.00 | 0.00 | 63 | |
| 20260831181819 | 68 | 320 | 5.0 | 0.0 | 0.00 | 0.00 | 0.00 | 60 | |
| 20260831172030 | 72 | 300 | 5.0 | 0.0 | 0.00 | 0.00 | 0.00 | 53 | |
| 20260831162121 | 73 | 270 | 12.0 | 0.0 | 0.00 | 0.00 | 0.00 | 43 | |
| 20260831151821 | 73 | 280 | 12.0 | 0.0 | 0.00 | 0.00 | 0.00 | 46 | |
| 20260831141918 | 73 | 280 | 12.0 | 0.0 | 0.00 | 0.00 | 0.00 | 49 | |
| 20260831131918 | 73 | 250 | 9.0 | 0.0 | 0.00 | 0.00 | 0.00 | 53 | |
| 20260831121820 | 72 | 290 | 14.0 | 0.0 | 0.00 | 0.00 | 0.00 | 60 | |
| 20260831111917 | 72 | 280 | 14.0 | 0.0 | 0.00 | 0.00 | 0.00 | 60 | |
| 20260831102121 | 68 | 290 | 12.0 | 0.0 | 0.00 | 0.00 | 0.00 | 72 | |
| 20260831091819 | 70 | 270 | 9.0 | 0.0 | 0.00 | 0.00 | 0.00 | 73 | |
| 20260831081920 | 64 | 260 | 5.0 | 0.0 | 0.00 | 0.00 | 0.00 | 88 | |
| 20260831071951 | 64 | 280 | 7.0 | 0.0 | 0.00 | 0.00 | 0.00 | 82 | |
| 20260831061924 | 61 | 230 | 5.0 | 0.0 | 0.00 | 0.00 | 0.00 | 87 | |
| 20260831052036 | 61 | 210 | 5.0 | 0.0 | 0.00 | 0.00 | 0.00 | 87 | |
| 20260831042121 | 59 | 30 | 2.0 | 0.0 | 0.00 | 0.00 | 0.00 | 93 | |
| 20260831031819 | 61 | 40 | 2.0 | 0.0 | 0.00 | 0.00 | 0.00 | 87 | |
| 20260831021918 | 64 | 250 | 2.0 | 0.0 | 0.00 | 0.00 | 0.00 | 77 | |
| 20260831011917 | 63 | 290 | 2.0 | 0.0 | 0.00 | 0.00 | 0.00 | 77 | |
| 20260831001817 | 64 | 240 | 5.0 | 0.0 | 0.00 | 0.00 | 0.00 | 77 | |
| 20260830232031 | 64 | 240 | 5.0 | 0.0 | 0.00 | 0.00 | 0.00 | 77 | |
| 20260830222031 | 68 | 220 | 5.0 | 0.0 | 0.00 | 0.00 | 0.00 | 68 | |
| 20260830211821 | 70 | 250 | 2.0 | 0.0 | 0.00 | 0.00 | 0.00 | 60 | |
| 20260830202030 | 70 | 250 | 5.0 | 0.0 | 0.00 | 0.00 | 0.00 | 60 |